Location: ??????????
(42.1626°N, 44.1160°E)
Time: 13:49:32
(UTC+00:00)

COSMOS 2428 - Pass Details

Date: 03 March 2021
Orbit: 845 x 858 km, 70.9° (Epoch: 21 April)

Event Time Altitude Azimuth Distance (km) Brightness Sun altitude
Rises 15:51:31 0° 159° (SSE) 3,389 5.6 -11.1°
Reaches altitude 10° 15:54:40 10° 141° (SE) 2,460 4.7 -11.7°
Maximum altitude 15:58:25 18° 99° (E) 1,940 3.9 -12.4°
Enters shadow 16:00:01 16° 79° (ENE) 2,048 4.1 -12.7°
